When you browse on this site, cookies collect data to enhance your experience and personalize the content and advertising you see.
Visit our Privacy Policy to learn more. By continuing to use the site, you agree to this use of cookies and data.
  • In Hungary
  • List of Countries
  • For 7 days
  • Water Temperature
  • Weather Map
  • News
  • Weather Widgets
  • user-avatar
    Login

    Hourly Weather Peperzyn

    Today, 12 November, Tuesday

    Time Temperature Precipitation Wind Pressure Humidity
    00:00 0°C° 0 mm 5 mps 748 mmHg 82%
    01:00 0°C° 0 mm 5 mps 747 mmHg 84%
    02:00 0°C° 0 mm 5 mps 747 mmHg 85%
    03:00 0°C° 0 mm 4 mps 746 mmHg 87%
    04:00 0°C° 0 mm 4 mps 746 mmHg 88%
    05:00 +1°C° 0 mm 4 mps 746 mmHg 88%
    06:00 +1°C° 0 mm 4 mps 746 mmHg 88%
    07:00 +1°C° 0 mm 4 mps 746 mmHg 86%
    08:00 +3°C° 0 mm 4 mps 746 mmHg 84%
    09:00 +3°C° 0 mm 4 mps 746 mmHg 82%
    10:00 +4°C° 0 mm 4 mps 746 mmHg 81%
    11:00 +4°C° 0.1 mm 3 mps 746 mmHg 80%
    12:00 +5°C° 0.1 mm 3 mps 746 mmHg 80%
    13:00 +5°C° 0.1 mm 3 mps 747 mmHg 79%
    14:00 +6°C° 0.3 mm 2 mps 746 mmHg 82%
    15:00 +6°C° 0.3 mm 2 mps 746 mmHg 85%
    16:00 +6°C° 0.3 mm 1 mps 746 mmHg 87%
    17:00 +6°C° 0.4 mm 1 mps 746 mmHg 89%
    18:00 +6°C° 0.4 mm 1 mps 746 mmHg 90%
    19:00 +6°C° 0.4 mm 1 mps 746 mmHg 92%
    20:00 +6°C° 0.4 mm 1 mps 745 mmHg 93%
    21:00 +6°C° 0.4 mm 1 mps 745 mmHg 94%
    22:00 +6°C° 0.4 mm 1 mps 745 mmHg 95%
    23:00 +6°C° 0.6 mm 1 mps 745 mmHg 96%

    Tomorrow, 13 November, Wednesday

    Time Temperature Precipitation Wind Pressure Humidity
    00:00 +6°C° 0.6 mm 1 mps 745 mmHg 96%
    01:00 +6°C° 0.6 mm 1 mps 745 mmHg 97%
    02:00 +6°C° 0.1 mm 1 mps 744 mmHg 97%
    03:00 +7°C° 0.1 mm 1 mps 744 mmHg 97%
    04:00 +7°C° 0.1 mm 1 mps 743 mmHg 97%
    05:00 +7°C° 0.1 mm 1 mps 743 mmHg 97%
    06:00 +7°C° 0.1 mm 1 mps 742 mmHg 97%
    07:00 +6°C° 0.1 mm 2 mps 742 mmHg 97%
    08:00 +7°C° 0.2 mm 2 mps 742 mmHg 97%
    09:00 +7°C° 0.2 mm 2 mps 741 mmHg 96%
    10:00 +7°C° 0.2 mm 2 mps 741 mmHg 96%
    11:00 +8°C° 0.7 mm 1 mps 741 mmHg 96%
    12:00 +9°C° 0.7 mm 1 mps 741 mmHg 96%
    13:00 +9°C° 0.7 mm 1 mps 740 mmHg 95%
    14:00 +8°C° 1.1 mm 1 mps 740 mmHg 96%
    15:00 +8°C° 1.1 mm 1 mps 740 mmHg 97%
    16:00 +8°C° 1.1 mm 1 mps 740 mmHg 97%
    17:00 +8°C° 0.1 mm 1 mps 741 mmHg 97%
    18:00 +8°C° 0.1 mm 1 mps 741 mmHg 96%
    19:00 +8°C° 0.1 mm 1 mps 741 mmHg 96%
    20:00 +7°C° 0.5 mm 2 mps 741 mmHg 96%
    21:00 +6°C° 0.5 mm 2 mps 741 mmHg 96%
    22:00 +6°C° 0.5 mm 2 mps 741 mmHg 95%
    23:00 +5°C° 0.9 mm 3 mps 741 mmHg 95%

    Day after tomorrow, 14 November, Thursday

    Time Temperature Precipitation Wind Pressure Humidity
    00:00 +5°C° 0.9 mm 4 mps 741 mmHg 94%
    01:00 +5°C° 0.9 mm 5 mps 740 mmHg 93%
    02:00 +5°C° 1.8 mm 5 mps 740 mmHg 93%
    03:00 +3°C° 1.8 mm 5 mps 741 mmHg 93%
    04:00 +3°C° 1.8 mm 5 mps 741 mmHg 93%
    05:00 +4°C° 0.5 mm 4 mps 742 mmHg 92%
    06:00 +4°C° 0.5 mm 4 mps 743 mmHg 91%
    07:00 +4°C° 0.5 mm 3 mps 744 mmHg 90%
    08:00 +4°C° 0 mm 3 mps 744 mmHg 88%
    09:00 +4°C° 0 mm 3 mps 745 mmHg 87%
    10:00 +4°C° 0 mm 3 mps 746 mmHg 85%
    11:00 +6°C° 0 mm 2 mps 747 mmHg 82%
    12:00 +6°C° 0 mm 2 mps 747 mmHg 78%
    13:00 +7°C° 0 mm 1 mps 748 mmHg 75%
    14:00 +7°C° 0 mm 1 mps 748 mmHg 76%
    15:00 +7°C° 0 mm 1 mps 748 mmHg 77%
    16:00 +6°C° 0 mm 1 mps 748 mmHg 79%
    17:00 +5°C° 0 mm 2 mps 749 mmHg 80%
    18:00 +5°C° 0 mm 2 mps 749 mmHg 80%
    19:00 +4°C° 0 mm 3 mps 749 mmHg 81%
    20:00 +4°C° 0 mm 3 mps 749 mmHg 84%
    21:00 +4°C° 0 mm 3 mps 749 mmHg 86%
    22:00 +3°C° 0 mm 3 mps 749 mmHg 89%
    23:00 +4°C° 0 mm 4 mps 749 mmHg 88%

    15 November, Friday

    Time Temperature Precipitation Wind Pressure Humidity
    00:00 +4°C° 0 mm 4 mps 749 mmHg 88%
    01:00 +3°C° 0 mm 5 mps 748 mmHg 87%
    02:00 +3°C° 0 mm 5 mps 748 mmHg 89%
    03:00 +3°C° 0 mm 5 mps 748 mmHg 92%
    04:00 +3°C° 0 mm 5 mps 747 mmHg 94%
    05:00 +5°C° 0 mm 5 mps 747 mmHg 95%
    06:00 +6°C° 0 mm 5 mps 747 mmHg 96%
    07:00 +7°C° 0 mm 5 mps 747 mmHg 97%
    08:00 +7°C° 0 mm 5 mps 747 mmHg 95%
    09:00 +8°C° 0 mm 5 mps 747 mmHg 93%
    10:00 +9°C° 0 mm 6 mps 747 mmHg 91%
    11:00 +9°C° 0 mm 6 mps 747 mmHg 87%
    12:00 +10°C° 0 mm 6 mps 747 mmHg 83%
    13:00 +11°C° 0 mm 6 mps 747 mmHg 78%
    14:00 +11°C° 0 mm 6 mps 747 mmHg 81%
    15:00 +10°C° 0 mm 6 mps 747 mmHg 83%
    16:00 +10°C° 0 mm 5 mps 746 mmHg 86%
    17:00 +10°C° 0 mm 5 mps 747 mmHg 86%
    18:00 +10°C° 0 mm 5 mps 747 mmHg 87%
    19:00 +10°C° 0 mm 5 mps 747 mmHg 87%
    20:00 +9°C° 0 mm 5 mps 747 mmHg 88%
    21:00 +9°C° 0 mm 5 mps 747 mmHg 89%
    22:00 +9°C° 0 mm 5 mps 747 mmHg 89%
    23:00 +9°C° 0 mm 5 mps 747 mmHg 90%

    16 November, Saturday

    Time Temperature Precipitation Wind Pressure Humidity
    00:00 +9°C° 0 mm 5 mps 747 mmHg 91%
    01:00 +8°C° 0 mm 4 mps 747 mmHg 91%
    02:00 +9°C° 0 mm 5 mps 747 mmHg 90%
    03:00 +9°C° 0 mm 5 mps 747 mmHg 88%
    04:00 +9°C° 0 mm 5 mps 746 mmHg 87%
    05:00 +9°C° 0 mm 5 mps 746 mmHg 86%
    06:00 +9°C° 0 mm 5 mps 746 mmHg 85%
    07:00 +9°C° 0 mm 6 mps 746 mmHg 84%
    08:00 +10°C° 0 mm 6 mps 747 mmHg 80%
    09:00 +10°C° 0 mm 6 mps 747 mmHg 76%
    10:00 +11°C° 0 mm 7 mps 748 mmHg 72%
    11:00 +11°C° 0 mm 6 mps 748 mmHg 72%
    12:00 +11°C° 0 mm 6 mps 749 mmHg 71%
    13:00 +12°C° 0 mm 5 mps 749 mmHg 71%
    14:00 +10°C° 0 mm 4 mps 750 mmHg 73%
    15:00 +9°C° 0 mm 3 mps 750 mmHg 76%
    16:00 +8°C° 0 mm 2 mps 751 mmHg 78%
    17:00 +8°C° 0 mm 2 mps 751 mmHg 80%
    18:00 +8°C° 0 mm 1 mps 752 mmHg 83%
    19:00 +8°C° 0 mm 1 mps 753 mmHg 85%
    20:00 +7°C° 0 mm 1 mps 753 mmHg 85%
    21:00 +7°C° 0 mm 1 mps 753 mmHg 85%
    22:00 +7°C° 0 mm 1 mps 754 mmHg 86%
    23:00 +7°C° 0 mm 1 mps 754 mmHg 86%

    17 November, Sunday

    Time Temperature Precipitation Wind Pressure Humidity
    00:00 +6°C° 0 mm 2 mps 753 mmHg 86%
    01:00 +6°C° 0 mm 2 mps 753 mmHg 87%
    02:00 +5°C° 0 mm 3 mps 753 mmHg 87%
    03:00 +7°C° 0 mm 3 mps 753 mmHg 87%
    04:00 +6°C° 0 mm 4 mps 752 mmHg 87%
    05:00 +6°C° 0 mm 4 mps 752 mmHg 89%
    06:00 +7°C° 0 mm 4 mps 751 mmHg 90%
    07:00 +7°C° 0 mm 4 mps 751 mmHg 92%
    08:00 +8°C° 0 mm 4 mps 751 mmHg 89%
    09:00 +8°C° 0 mm 5 mps 751 mmHg 86%
    10:00 +9°C° 0 mm 5 mps 750 mmHg 84%
    11:00 +9°C° 0 mm 5 mps 750 mmHg 81%
    12:00 +10°C° 0 mm 5 mps 749 mmHg 79%
    13:00 +10°C° 0 mm 5 mps 749 mmHg 77%
    14:00 +9°C° 0 mm 5 mps 749 mmHg 80%
    15:00 +9°C° 0 mm 5 mps 749 mmHg 83%
    16:00 +8°C° 0 mm 4 mps 748 mmHg 86%
    17:00 +8°C° 0 mm 4 mps 748 mmHg 87%
    18:00 +7°C° 0 mm 4 mps 748 mmHg 87%
    19:00 +7°C° 0 mm 4 mps 748 mmHg 88%
    20:00 +7°C° 0 mm 4 mps 748 mmHg 89%
    21:00 +6°C° 0 mm 4 mps 748 mmHg 90%
    22:00 +6°C° 0 mm 4 mps 748 mmHg 91%
    23:00 +6°C° 0 mm 4 mps 748 mmHg 91%
    Show more